This demonstration page uses our WeatherBlox Daily Observations layout. Learn more.

Hourly Observations for December 13, 2019

Temp ( °F °C ) Dew Point ( °F °C ) Humidity (%) Winds ( mph kmh ) Pressure ( in mb ) Visibility ( mi km ) Precip ( " mm )
12:15 am 00:15 Clear 36 2 30 -0.9 81 81 S 13 20 29.97 1015 10 16.0934 0 0
12:35 am 00:35 Clear 35 1.6 30 -1.1 82 82 S 12 19 29.95 1014 10 16.0934 0 0
12:55 am 00:55 Clear 34 1.1 30 -1.1 85 85 S 13 20 29.95 1014 10 16.0934 0 0
1:15 am 01:15 Clear 33 0.7 30 -1.2 87 87 S 13 20 29.95 1014 10 16.0934 0 0
1:35 am 01:35 Mostly Cloudy 33 0.7 30 -1.1 88 88 S 10 17 29.95 1014 10 16.0934 0 0
1:55 am 01:55 Mostly Cloudy 34 0.9 31 -0.7 89 89 S 13 20 29.94 1014 10 16.0934 0 0
2:15 am 02:15 Mostly Cloudy 33 0.6 30 -1 89 89 S 10 17 29.94 1014 10 16.0934 0 0
2:35 am 02:35 Mostly Cloudy 34 1 31 -0.8 88 88 S 14 22 29.92 1013 10 16.0934 0 0
2:55 am 02:55 Cloudy 34 1.1 30 -1 86 86 S 13 20 29.92 1013 10 16.0934 0 0
3:15 am 03:15 Cloudy 34 1 30 -1.1 86 86 SSW 10 17 29.92 1013 10 16.0934 0 0
3:35 am 03:35 Mostly Cloudy 33 0.8 30 -1.3 86 86 SSW 13 20 29.92 1013 10 16.0934 0 0
3:55 am 03:55 Clear 33 0.3 29 -1.7 87 87 SSW 9 15 29.91 1013 10 16.0934 0 0
4:15 am 04:15 Partly Cloudy 32 -0.1 28 -2 87 87 SSW 6 9 29.91 1013 10 16.0934 0 0
4:35 am 04:35 Clear 31 -0.7 28 -2.3 89 89 SW 5 7 29.91 1013 10 16.0934 0 0
4:55 am 04:55 Mostly Cloudy 31 -0.7 28 -2.1 90 90 SW 3 6 29.91 1013 10 16.0934 0 0
5:15 am 05:15 Cloudy 31 -0.5 28 -2.1 89 89 SW 6 9 29.91 1013 10 16.0934 0 0
5:35 am 05:35 Mostly Cloudy 32 0 28 -2 87 87 WSW 5 7 29.9 1013 10 16.0934 0 0
5:55 am 05:55 Partly Cloudy 31 -0.6 27 -2.6 87 87 W 7 11 29.9 1013 10 16.0934 0 0
6:15 am 06:15 Partly Cloudy 30 -0.9 27 -2.6 88 88 WNW 7 11 29.91 1013 10 16.0934 0 0
6:35 am 06:35 Partly Cloudy 30 -1 27 -2.7 88 88 WNW 7 11 29.91 1013 10 16.0934 0 0
6:55 am 06:55 Clear 30 -1.3 27 -2.8 90 90 WNW 7 11 29.92 1013 10 16.0934 0 0
7:15 am 07:15 Clear 29 -1.5 27 -2.9 90 90 NW 8 13 29.92 1013 10 16.0934 0 0
7:35 am 07:35 Clear 31 -0.7 28 -2.3 89 89 WNW 8 13 29.92 1013 10 16.0934 0 0
7:55 am 07:55 Sunny 29 -1.7 27 -2.8 92 92 NW 8 13 29.93 1014 10 16.0934 0 0
8:15 am 08:15 Sunny 31 -0.6 29 -1.9 91 91 WNW 8 13 29.92 1013 10 16.0934 0 0
8:35 am 08:35 Sunny 32 -0.1 29 -1.4 91 91 NW 7 11 29.92 1013 10 16.0934 0 0
8:55 am 08:55 Sunny 34 1.1 31 -0.5 89 89 NW 8 13 29.9 1013 10 16.0934 0 0
9:15 am 09:15 Sunny 36 2.3 32 -0.1 84 84 NW 9 15 29.89 1012 10 16.0934 0 0
9:35 am 09:35 Sunny 38 3.6 32 0.1 78 78 NW 10 17 29.89 1012 10 16.0934 0 0
9:55 am 09:55 Sunny 40 4.7 33 0.5 74 74 NW 10 17 29.88 1012 10 16.0934 0 0
10:15 am 10:15 Sunny 41 4.9 33 0.5 73 73 NNW 8 13 29.87 1011 10 16.0934 0 0
10:35 am 10:35 Sunny 42 5.7 33 0.5 70 70 NNW 8 13 29.86 1011 10 16.0934 0 0
10:55 am 10:55 Sunny 42 5.8 33 0.4 69 69 NW 10 17 29.88 1012 10 16.0934 0 0
11:15 am 11:15 Sunny 43 6 33 0.6 69 69 NW 12 19 29.87 1011 10 16.0934 0 0
11:35 am 11:35 Sunny 45 7.1 33 0.8 65 65 NW 10 17 29.86 1011 10 16.0934 0 0
11:55 am 11:55 Sunny 45 7 33 0.4 63 63 NNW 7 11 29.84 1010 10 16.0934 0 0
12:15 pm 12:15 Sunny 45 7 33 0.5 64 64 NNW 8 13 29.83 1010 10 16.0934 0 0
12:35 pm 12:35 Partly Cloudy 47 8.4 34 1 60 60 NW 9 15 29.82 1010 10 16.0934 0 0
12:55 pm 12:55 Mostly Cloudy 47 8.3 33 0.5 58 58 NNW 9 15 29.83 1010 10 16.0934 0 0
1:15 pm 13:15 Cloudy 47 8.3 33 0.6 59 59 NNW 9 15 29.81 1009 10 16.0934 0 0
1:35 pm 13:35 Cloudy 46 7.8 33 0.6 61 61 NNW 8 13 29.81 1010 10 16.0934 0 0
1:55 pm 13:55 Cloudy 45 7.3 33 0.6 63 63 WNW 14 22 29.84 1010 10 16.0934 0 0
2:15 pm 14:15 Cloudy 45 7.1 33 0.4 63 63 NW 9 15 29.84 1010 10 16.0934 0 0
2:35 pm 14:35 Cloudy with Light Rain 46 7.5 33 0.7 62 62 NNW 16 26 29.84 1010 10 16.0934 0 0
2:55 pm 14:55 Cloudy with Light Rain 46 7.5 34 1.1 64 64 NW 9 15 29.85 1011 10 16.0934 0 0
3:15 pm 15:15 Cloudy with Light Rain 43 6.2 37 2.5 77 77 NW 7 11 29.86 1011 10 16.0934 0 0
3:35 pm 15:35 Cloudy with Light Rain 43 6.2 37 2.5 77 77 NNW 5 7 29.87 1011 10 16.0934 0 0
3:55 pm 15:55 Cloudy with Rain 43 6.3 37 2.8 79 79 Calm 29.87 1011 10 16.0934 0.01 0.254
4:15 pm 16:15 Cloudy 43 6.3 38 3.2 81 81 Calm 29.85 1011 10 16.0934 0 0
4:35 pm 16:35 Cloudy 42 5.7 38 3.3 85 85 Calm 29.86 1011 10 16.0934 0 0
4:55 pm 16:55 Cloudy 42 5.4 38 3.3 86 86 Calm 29.87 1012 10 16.0934 0 0
5:15 pm 17:15 Cloudy 42 5.5 37 2.5 81 81 Calm 29.88 1012 10 16.0934 0 0
5:35 pm 17:35 Cloudy 41 5 36 2 81 81 Calm 29.89 1012 10 16.0934 0 0
5:55 pm 17:55 Cloudy 41 5 36 2 81 81 NNW 5 7 29.9 1012 10 16.0934 0 0
6:15 pm 18:15 Cloudy 40 4.5 35 1.7 82 82 NNW 7 11 29.9 1013 10 16.0934 0 0
6:35 pm 18:35 Cloudy 40 4.5 35 1.5 81 81 NNW 7 11 29.91 1013 10 16.0934 0 0
6:55 pm 18:55 Cloudy 39 4.1 36 2 86 86 NNW 7 11 29.92 1013 10 16.0934 0 0
7:15 pm 19:15 Cloudy 40 4.2 36 2.1 86 86 NNW 7 11 29.93 1013 10 16.0934 0 0
7:35 pm 19:35 Cloudy 39 3.9 35 1.7 86 86 NW 8 13 29.94 1014 10 16.0934 0 0
7:55 pm 19:55 Cloudy 39 4 35 1.6 85 85 NW 8 13 29.96 1014 10 16.0934 0 0
8:15 pm 20:15 Cloudy 40 4.3 34 1.3 81 81 N 12 19 29.96 1015 10 16.0934 0 0
8:35 pm 20:35 Cloudy 38 3.4 32 -0.1 78 78 N 9 15 29.98 1015 10 16.0934 0 0
8:55 pm 20:55 Mostly Cloudy 37 2.5 31 -0.5 81 81 N 8 13 29.99 1016 10 16.0934 0 0
9:15 pm 21:15 Mostly Cloudy 36 2 31 -0.6 83 83 N 6 9 29.99 1015 10 16.0934 0 0
9:35 pm 21:35 Partly Cloudy 35 1.8 31 -0.5 85 85 NNW 7 11 30 1016 10 16.0934 0 0
9:55 pm 21:55 Mostly Cloudy 35 1.6 30 -0.9 84 84 NNW 6 9 30 1016 10 16.0934 0 0
10:15 pm 22:15 Cloudy 34 1.2 30 -1 85 85 NNW 7 11 30 1016 10 16.0934 0 0
10:35 pm 22:35 Cloudy 35 1.4 31 -0.6 87 87 NNW 6 9 30 1016 10 16.0934 0 0
10:55 pm 22:55 Cloudy 35 1.5 31 -0.3 88 88 NW 6 9 30 1016 10 16.0934 0 0
11:15 pm 23:15 Cloudy 34 1.3 32 -0.2 90 90 NNW 8 13 30 1016 10 16.0934 0 0
11:35 pm 23:35 Cloudy 34 1.2 31 -0.3 90 90 NNW 5 7 30 1016 10 16.0934 0 0
11:55 pm 23:55 Cloudy 34 1 31 -0.3 91 91 NNW 6 9 30.01 1016 10 16.0934 0 0

Powered by AerisWeather